Regional Weather Roundup
Issued by NWS

Home | Current Version | Previous Version | Text Only | Print | Product List | Glossary Off
Versions: 1 2 3 4 5 6 7 8 9 10 11 12 13 14 15 16 17 18 19 20 21 22 23 24 25 26 27 28 29 30 31 32 33 34 35 36 37 38 39 40 41 42 43 44 45 46 47 48 49 50

000
ASUS45 KABQ 061810
RWRNM
WEATHER ROUNDUP FOR NEW MEXICO
NATIONAL WEATHER SERVICE ALBUQUERQUE NM
1100 AM MST FRI MAR 06 2015

NOTE: "FAIR" MEANS FEW OR NO CLOUDS BELOW 12,000 FEET AGL WITH NO
       SIGNIFICANT WEATHER OR OBSTRUCTIONS TO VISION.

      THIS PRODUCT IS RELEASED AS TWO VERSIONS.  ONE VERSION NEAR
      THE TOP OF THE HOUR CONTAINING PRELIMINARY DATA FROM ALBUQUERQUE
      AND OTHER STATIONS.  A FINAL VERSION WITH ADDITIONAL DATA IS
      ISSUED ABOUT 10 MINUTES AFTER THE HOUR.

NMZ501-503-504-510>518-061900-
NORTHWEST PLATEAU/NORTHCENTRAL MOUNTAINS

CITY           SKY/WX    TMP DP  RH WIND       PRES   REMARKS
FARMINGTON     SUNNY     42  21  43 VRB3      30.42F
6HR MIN TEMP:  20; 6HR MAX TEMP:  42;

LOS ALAMOS     SUNNY     42  10  27 E8        30.41S
SANTA FE       SUNNY     45  12  26 N12       30.38F
6HR MIN TEMP:  22; 6HR MAX TEMP:  45;

TAOS           SUNNY     39  14  35 N5        30.42F
ANGEL FIRE     FAIR      15   9  76 CALM      30.40F

$$
NMZ402-403-502-505>509-061900-
WESTCENTRAL MOUNTAINS/SOUTHWEST MOUNTAINS

CITY           SKY/WX    TMP DP  RH WIND       PRES   REMARKS
GALLUP         SUNNY     47  20  34 VRB5      30.40F
6HR MIN TEMP:  16; 6HR MAX TEMP:  47;

GRANTS         SUNNY     46  12  25 NW6       30.41F
SILVER CITY    SUNNY     52  10  19 SE15G24   30.37F

$$
NMZ407-409-411-412-061900-
SOUTHERN DESERTS

CITY           SKY/WX    TMP DP  RH WIND       PRES   REMARKS
LORDSBURG      FAIR      54  19  26 SE20G28   30.33F
DEMING         SUNNY     51  21  30 E13       30.37F
6HR MIN TEMP:  26; 6HR MAX TEMP:  52;

LAS CRUCES     SUNNY     47  21  35 E6        30.40F
HOLLOMAN AFB   SUNNY     47  24  41 S6        30.39F
ALAMOGORDO     SUNNY     46  25  42 S5        30.41F
T OR C         SUNNY     51  13  21 E8        30.38F
6HR MIN TEMP:  27; 6HR MAX TEMP:  51;


$$
NMZ519>523-061900-
CENTRAL VALLEYS/CENTRAL HIGHLANDS

CITY           SKY/WX    TMP DP  RH WIND       PRES   REMARKS
ALBUQUERQUE    SUNNY     47  14  26 N8        30.41F
6HR MIN TEMP:  28; 6HR MAX TEMP:  47;

DOUBLE EAGLE   SUNNY     46  16  29 CALM      30.41F
MORIARTY ARPT  FAIR      49  13  23 CALM      30.39F
6HR MIN TEMP:  14; 6HR MAX TEMP:  49;

CLINES CORNERS SUNNY     47  13  25 NW8       30.36S
6HR MIN TEMP:  24; 6HR MAX TEMP:  47;

BELEN          FAIR      47  11  23 W3        30.41F
6HR MIN TEMP:  19; 6HR MAX TEMP:  47;

SOCORRO          N/A     50  13  22 N9        30.40F
6HR MIN TEMP:  22; 6HR MAX TEMP:  50;


$$
NMZ524>526-539-540-061900-
SOUTHCENTRAL MOUNTAINS

CITY           SKY/WX    TMP DP  RH WIND       PRES   REMARKS
RUIDOSO        SUNNY     50   7  17 SE5       30.39F

$$
NMZ527>531-061900-
NORTHEAST HIGHLANDS/NORTHEAST PLAINS

CITY           SKY/WX    TMP DP  RH WIND       PRES   REMARKS
LAS VEGAS      SUNNY     49  18  29 S13       30.36F
6HR MIN TEMP:  22; 6HR MAX TEMP:  49;

RATON          SUNNY     46  17  31 S7        30.35S
6HR MIN TEMP:  17; 6HR MAX TEMP:  46;

CLAYTON        SUNNY     50  21  32 VRB3      30.34F
6HR MIN TEMP:  28; 6HR MAX TEMP:  51;


$$
NMZ532>537-061900-
EASTCENTRAL PLAINS

CITY           SKY/WX    TMP DP  RH WIND       PRES   REMARKS
TUCUMCARI      SUNNY     49  27  42 W6        30.35F
6HR MIN TEMP:  21; 6HR MAX TEMP:  49;

CANNON AFB     SUNNY     42  29  60 SW8       30.37F
6HR MIN TEMP:  21; 6HR MAX TEMP:  42;

CLOVIS AIRPORT SUNNY     45  28  53 SW10      30.37F

$$
NMZ028-029-538-061900-
SOUTHEAST PLAINS

CITY           SKY/WX    TMP DP  RH WIND       PRES   REMARKS
ROSWELL        CLOUDY    32  29  88 VRB3      30.42F
6HR MIN TEMP:  24; 6HR MAX TEMP:  32;

ARTESIA        DRIZZLE   34  34 100 CALM      30.43F
CARLSBAD       CLOUDY    33  30  88 VRB3      30.42F
6HR MIN TEMP:  19; 6HR MAX TEMP:  33;

HOBBS          SUNNY     45  28  53 S6        30.43F


$$



USA.gov is the U.S. government's official web portal to all federal, state and local government web resources and services.